Terminal Aerodrome Forecast
Issued by NWS Grand Forks, ND

Home | Current Version | Previous Version | Graphics & Text | Print | Product List | Glossary On
Versions: 1 2 3 4 5 6 7 8 9 10 11 12 13 14 15 16 17 18 19 20 21 22 23 24 25
000
FTUS43 KFGF 180900 AAC
TAFGFK
TAF AMD
KGFK 180940Z 1810/1906 17008KT 3SM -TSRA BR SCT005 BKN035CB
      TEMPO 1810/1811 4SM BR BKN005
     FM181100 17005KT P6SM VCSH SCT005 BKN110
     FM181600 30008KT P6SM BKN025
     FM181900 33010KT P6SM VCTS BKN035CB=

USA.gov is the U.S. government's official web portal to all federal, state and local government web resources and services.